Aérodrome :
LOGIN :

S'inscrire | Disclaimer

   EN    FR    IT 

 










Légende :    VFR   VFR Marginal   IFR   IFR Intensif   IFR Très Intensif
Visi : 
Plafond : 
>= 8 km
>= 3000ft
5 à 8 km
1000 à 3000 ft
1500m à 5 km
500 à 1000 ft
800 à 1500m
200 à 500 ft
< 800m
< 200 ft
Symboles :   Orages  Brouillard  Fortes neiges  Fortes précipitations  Vent > 20 kt
SIGMETs :   Divers  Orages  Givrage  Turbulence  Onde Orograph.  Cendres Volcan.







- Altitude de l'aérodrome : 291 ft
- Code IATA : ORY
- Voir les cartes d'approche


LFPO - Paris-Orly

DERNIER METAR :
  • 172300Z VRB01KT CAVOK 00/M03 Q1019 NOSIG

METARs EXPIRÉS :
  • 172230Z 01003KT CAVOK 01/M02 Q1019 NOSIG
  • 172200Z 33004KT CAVOK 02/M02 Q1019 NOSIG
  • 172130Z 29005KT CAVOK 01/M02 Q1018 NOSIG
  • 172100Z 28003KT 240V340 CAVOK 02/M02 Q1018 NOSIG
  • 172030Z 00000KT CAVOK 02/M02 Q1018 NOSIG

TAF TAF LFPO
Valide du 17 à 18h jusqu'au 19 à 00h UTC


171700Z 1718/1824 33008KT CAVOK
PROB30
TEMPO 1821/1824 3000 BR
ATIS : +33 1 49 75 65 80
Pas de NOTAMs connus pour ce terrain.



MET'MAP, la Météo Aéronautique d'un coup d'oeil ! - Copyright ORBIFLY Décembre 2007 - Disclaimer

ORBIFLY MET'MAP TEAM :

Programmation & Développement : Alexandra Zaïnal
Conception & Développement : Baudouin d'Aumeries
Co-Programmation & Développement : Marc-Olivier Méhu
Soutien technique & logistique : Manuel Goepfert

Contact : metmap@orbifly.com




SOURCES & CREDITS :

   NOAA